EHI
0 0 0 0 0 0 0 0 0 0 0 0 0 0 0 0 0 0 0 0 0 0 0 0 0 0 0 0 0 0 0 0 0 0 0 0 0 0 0 0 0 0 0 0
0 0 0 0 0 0 0 0 0 0 0 0 0 0 0 0 0 0 0 0 0 0 0 0 0 0 0 0 0 0 0 0 0 0 0 0 0 0 0 0 0 0 0 0
0 0 0 0 0 0 0 0 0 0 0 0 0 0 0 0 0 0 0 0 0 0 0 0 0 0 0 0 0 0 0 0 0 0 0 0 0 0 0 0 0 0 0 0
0 0 0 0 0 0 0 0 0 0 0 0 0 0 0 0 0 0 0 0 0 0 0 0 0 0 0 0 0 0 0 0 0 0 0 0 0 0 0 0 0 0 0 0
0 0 0 0 0 0 0 0 0 0 0 0 0 0 0 0 0 0 0 0 0 0 0 0 0 0 0 0 0 0 0 0 0 0 0 0 0 0 0 0 0 0 0 0
0 0 0 0 0 0 0 0 0 0 0 0 0 0 0 0 0 0 0 0 0 0 0 0 0 0 0 0 0 0 0 0 0 0 0 0 0 0 0 0 0 0 0 0
0 0 0 0 0 0 0 0 0 0 0 0 0 0 0 0 0 0 0 0 0 0 0 0 0 0 0 0 0 0 0 0 0 0 0 0 0 0 0 0 0 0 0 0
0 0 0 0 0 0 0 0 0 0 0 0 0 0 0 0 0 0 0 0 0 0 0 0 0 0 0 0 0 0 0 0 0 0 0 0 0 0 0 0 0 0 0 0
0 0 0 0 0 0 0 0 0 0 0 0 0 0 0 0 0 0 0 0 0 0 0 0 0 0 0 0 0 0 0 0 0 0 0 0 0 0 0 0 0 0 0 0
0 0 0 0 0 0 0 0 0 0 0 0 0 0 0 0 0 0 0 0 0 0 0 0 0 0 0 0 0 0 0 0 0 0 0 0 0 0 0 0 0 0 0 0
0 0 0 0 0 0 0 0 0 0 0 0 0 0 0 0 0 0 0 0 0 0 0 0 0 0 0 0 0 0 0 0 0 0 0 0 0 0 0 0 0 0 0 0
0 0 0 0 0 0 0 0 0 0 0 0 0 0 0 0 0 0 0 0 0 0 0 0 0 0 0 0 0 0 0 0 0 0 0 0 0 0 0 0 0 0 0 0
0 0 0 0 0 0 0 0 0 0 0 0 0 0 0 0 0 0 0 0 0 0 0 0 0 0 0 0 0 0 0 0 0 0 0 0 0 0 0 0 0 0 0 0
0 0 0 0 0 0 0 0 0 0 0 0 0 0 0 0 0 0 0 0 0 0 0 0 0 0 0 0 0 0 0 0 0 0 0 0 0 0 0 0 0 0 0 0
0 0 0 0 0 0 0 0 0 0 0 0 0 0 0 0 0 0 0 0 0 0 0 0 0 0 0 0 0 0 0 0 0 0 0 0 0 0 0 0 0 0 0 0
0 0 0 0 0 0 0 0 0 0 0 0 0 0 0 0 0 0 0 0 0 0 0 0 0 0 0 0 0 0 0 0 0 0 0 0 0 0 0 0 0 0 0 0
0 0 0 0 0 0 0 0 0 0 0 0 0 0 0 0 0 0 0 0 0 0 0 0 0 0 0 0 0 0 0 0 0 0 0 0 0 0 0 0 0 0 0 0
0 0 0 0 0 0 0 0 0 0 0 0 0 0 0 0 0 0 0 0 0 0 0 0 0 0 0 0 0 0 0 0 0 0 0 0 0 0 0 0 0 0 0 0
0 0 0 0 0 0 0 0 0 0 0 0 0 0 0 0 0 0 0 0 0 0 0 0 0 0 0 0 0 0 0 0 0 0 0 0 0 0 0 0 0 0 0 0
0 0 0 0 0 0 0 0 0 0 0 0 0 0 0 0 0 0 0 0 0 0 0 0 0 0 0 0 0 0 0 0 0 0 0 0 0 0 0 0 0 0 0 0
0 0 0 0 0 0 0 0 0 0 0 0 0 0 0 0 0 0 0 0 0 0 0 0 0 0 0 0 0 0 0 0 0 0 0 0 0 0 0 0 0 0 0 0
0 0 0 0 0 0 0 0 0 0 0 0 0 0 0 0 0 0 0 0 0 0 0 0 0 0 0 0 0 0 0 0 0 0 0 0 0 0 0 0 0 0 0 0
0 0 0 0 0 0 0 0 0 0 0 0 0 0 0 0 0 0 0 0 0 0 0 0 0 0 0 0 0 0 0 0 0 0 0 0 0 0 0 0 0 0 0 0
0 0 0 0 0 0 0 0 0 0 0 0 0 0 0 0 0 0 0 0 0 0 0 0 0 0 0 0 0 0 0 0 0 0 0 0 0 0 0 0 0 0 0 0
0 0 0 0 0 0 0 0 0 0 0 0 0 0 0 0 0 0 0 0 0 0 0 0 0 0 0 0 0 0 0 0 0 0 0 0 0 0 0 0 0 0 0 0
0 0 0 0 0 0 0 0 0 0 0 0 0 0 0 0 0 0 0 0 0 0 0 0 0 0 0 0 0 0 0 0 0 0 0 0 0 0 0 0 0 0 0 0
Wind_Speed
3 4 1 3 3 3 5 4 2 1 1 2 2 3 3 4 4 5 5 5 6 7 5 3 4 4 4 4 5 5 5 4 4 2 2 2 1 1 2 2 3 3 3 3
4 1 3 2 2 4 4 4 2 1 1 2 2 3 3 4 6 7 7 8 8 6 4 4 5 5 6 6 6 5 5 5 4 3 2 2 2 1 1 1 2 3 3 2
3 2 1 3 3 4 2 4 3 3 2 3 2 3 3 3 3 4 5 6 6 8 8 6 7 7 6 7 7 7 6 6 5 4 3 3 3 2 2 2 1 2 2 2
1 1 2 3 2 3 1 2 4 4 3 0 1 2 5 4 4 6 7 7 7 8 7 7 7 8 8 8 6 6 6 5 5 5 4 4 3 2 1 1 0 1 2 2
0 1 2 1 1 3 3 3 4 3 3 1 0 1 6 2 5 8 9 9 9 8 8 8 9 9 8 7 6 6 5 5 5 5 5 4 3 2 1 1 1 1 2 2
1 0 1 2 2 3 5 6 5 4 3 0 3 3 6 5 8 7 8 8 8 7 7 7 6 6 5 5 5 5 6 5 5 5 5 5 5 4 3 1 1 0 1 1
2 2 0 2 3 3 4 5 3 3 2 3 2 3 7 7 7 9 9 9 8 7 6 6 6 6 6 6 7 6 7 6 5 6 5 6 6 5 5 3 3 2 1 0
1 2 2 2 4 4 2 5 5 3 2 3 1 4 7 5 4 4 5 6 6 7 7 7 8 8 7 8 7 7 7 6 6 6 6 5 5 4 3 4 3 3 2 2
4 3 2 1 2 7 4 2 3 4 1 1 4 5 7 2 2 1 3 4 5 7 7 7 6 7 7 7 8 9 8 7 6 6 5 5 5 4 4 4 3 2 2 2
5 2 2 0 3 2 4 6 4 4 3 1 4 3 4 4 2 1 3 5 5 5 6 5 5 6 6 6 6 6 6 6 5 5 5 4 4 4 4 3 4 3 3 2
4 4 1 1 3 4 3 3 4 3 3 3 2 5 4 4 3 4 4 4 5 6 6 6 5 5 4 4 5 5 5 5 4 5 4 4 4 3 3 3 4 4 3 3
4 5 1 4 3 3 4 4 6 4 3 3 2 6 4 3 3 3 3 3 4 6 5 5 4 4 4 4 5 5 5 5 5 5 5 4 4 4 3 3 3 3 3 3
5 5 2 4 3 1 1 2 3 4 4 3 3 6 3 1 1 2 2 3 4 5 5 4 4 4 5 5 5 5 5 6 5 5 5 4 4 4 4 3 3 3 3 3
5 4 5 6 5 3 2 2 3 4 3 3 5 5 5 3 2 2 1 2 3 4 5 5 5 4 5 5 5 6 5 5 5 5 5 5 5 5 4 4 3 3 3 3
4 3 3 3 3 3 3 3 5 5 6 6 6 5 7 4 3 2 1 2 3 4 5 5 6 5 5 4 4 5 5 5 5 5 5 5 4 4 3 3 3 3 3 3
3 3 1 1 1 1 1 3 4 4 4 4 3 5 5 3 1 0 1 2 3 4 5 5 5 5 5 5 5 5 5 5 5 6 5 4 4 4 4 4 3 3 3 2
2 4 3 2 2 2 3 5 6 4 4 5 6 7 2 1 2 3 3 3 4 4 4 4 5 6 6 6 6 6 5 5 5 5 5 4 5 4 4 4 4 4 4 3
5 4 3 1 1 3 7 3 4 5 4 5 4 3 3 4 3 2 3 4 3 3 4 4 4 4 4 4 4 4 4 5 5 5 4 4 5 5 4 4 4 4 3 3
5 6 4 3 2 5 6 3 5 4 4 4 5 4 2 1 2 2 1 2 4 4 4 4 4 4 4 4 4 5 4 4 4 4 4 5 5 5 5 4 4 3 3 3
3 4 5 4 3 6 7 3 2 4 4 3 5 5 4 4 2 4 2 2 2 2 2 2 2 3 3 3 4 5 4 4 5 5 5 5 5 6 6 5 4 3 3 3
3 2 4 4 4 7 7 2 4 4 7 3 5 5 5 6 5 3 2 2 2 2 2 3 4 3 2 3 4 4 4 4 5 4 4 4 5 5 5 4 3 3 3 3
7 5 5 5 4 8 3 4 7 7 2 2 3 4 5 4 2 2 3 2 3 3 3 3 3 2 2 3 4 4 3 3 3 4 4 4 4 4 4 4 3 3 3 3
6 7 7 8 8 5 2 4 3 3 2 2 3 3 5 4 3 2 2 2 2 3 3 3 3 3 2 2 4 4 2 2 3 4 4 3 3 3 3 4 4 3 3 2
3 2 3 3 5 3 2 2 1 1 2 2 2 3 4 4 3 3 3 2 2 2 3 3 4 4 2 1 2 2 2 3 4 4 3 3 4 3 3 3 3 3 3 3
5 4 3 3 4 1 2 2 1 0 1 2 2 2 4 5 4 4 3 3 3 2 2 3 4 4 2 2 2 1 2 4 5 4 3 3 3 3 3 2 2 3 3 3
6 7 7 7 7 5 5 4 2 2 1 3 3 2 1 4 4 4 3 3 3 3 3 3 3 3 2 2 2 1 2 4 5 4 3 3 3 3 3 3 2 2 1 2
Wind_Direction
50 72 147 208 191 173 146 136 144 234 198 133 178 218 216 176 184 199 202 201 209 222 227 202 184 170 161 159 156 155 149 152 142 125 114 101 76 40 31 28 41 56 72 84
52 342 234 193 155 127 127 125 134 71 103 135 172 255 247 193 205 206 202 207 211 216 205 193 184 177 178 177 175 170 167 166 167 151 137 132 127 102 75 28 37 43 63 76
148 237 176 143 125 126 134 161 173 155 76 63 86 317 268 234 214 215 213 211 210 208 204 196 186 188 185 186 186 183 181 174 171 150 114 91 69 49 36 22 15 14 46 66
122 269 123 114 122 139 183 178 154 133 114 308 129 275 274 233 229 223 220 213 215 215 204 193 187 190 196 199 188 184 182 176 169 154 149 147 148 160 199 185 45 26 42 66
204 130 117 119 188 148 162 114 113 120 125 82 61 201 278 217 229 233 223 217 216 212 203 196 195 197 199 193 184 183 176 176 170 166 165 155 151 160 144 108 88 49 32 41
220 239 163 175 93 112 118 83 66 59 80 290 222 189 269 225 216 222 217 214 211 205 202 198 196 190 189 185 181 176 174 183 176 174 172 171 170 164 152 152 150 64 24 20
6 351 37 129 97 59 90 90 50 12 15 263 232 207 253 245 225 213 210 210 206 194 191 187 184 185 187 186 188 183 181 189 184 181 185 187 183 178 182 185 182 182 202 232
144 283 237 183 161 158 152 136 154 181 215 285 283 238 260 270 254 217 201 197 190 189 189 188 191 190 191 192 190 185 188 193 186 188 193 189 185 183 190 188 183 191 199 206
169 245 286 188 158 137 137 167 163 129 151 295 281 284 302 337 7 124 159 168 186 193 190 188 188 189 193 193 192 189 188 191 190 190 185 186 188 187 189 185 182 185 197 192
151 178 299 165 91 63 141 145 114 123 145 265 295 284 269 299 298 228 189 192 197 193 190 186 187 191 194 194 188 180 181 187 185 181 182 184 186 187 179 166 176 183 186 171
136 143 310 65 181 184 130 133 131 126 151 163 266 279 242 237 237 222 223 206 195 189 187 184 186 186 183 174 166 168 175 175 172 175 173 168 175 171 162 170 183 181 172 167
147 126 206 253 249 179 163 170 154 154 193 175 183 270 282 248 242 219 215 203 191 186 182 176 171 163 161 168 169 173 175 175 179 172 163 168 163 156 163 181 184 170 167 168
144 122 86 346 347 42 173 174 162 134 126 157 178 267 309 324 274 217 206 204 188 176 164 159 157 169 177 179 180 179 181 183 176 161 159 161 164 167 178 185 177 166 163 157
127 128 164 196 219 193 206 189 160 141 159 194 218 252 301 314 306 298 250 207 184 176 168 168 175 184 186 185 184 184 187 180 170 161 163 172 182 183 183 177 168 167 160 153
116 158 205 237 239 174 195 200 181 187 192 195 228 234 258 262 243 237 213 160 159 170 174 179 184 186 184 185 186 185 183 177 170 164 175 191 187 173 166 165 165 159 155 162
104 153 152 315 293 169 242 237 205 214 207 214 241 263 258 259 215 166 184 164 176 186 182 183 185 185 189 190 191 186 183 180 169 175 190 185 164 163 170 171 161 153 158 159
130 135 131 260 308 43 278 237 201 197 201 183 215 242 243 202 203 208 203 194 194 197 190 188 193 195 199 198 190 189 186 169 168 180 182 173 168 172 178 168 156 166 172 163
151 131 136 159 71 235 246 238 189 192 224 208 215 235 211 213 213 206 191 188 201 202 195 195 196 197 196 184 175 171 156 158 169 176 178 174 168 169 164 157 167 177 167 167
167 147 134 143 191 268 286 242 176 177 246 213 206 214 190 147 70 342 246 196 200 202 199 193 187 179 171 169 163 147 146 155 165 178 181 176 167 162 160 168 179 175 162 171
115 125 131 145 171 229 246 248 179 127 263 237 193 196 174 126 124 258 238 183 186 167 155 147 136 128 136 153 146 143 153 158 184 193 185 172 164 165 173 180 174 161 162 177
132 115 156 170 207 254 251 241 120 158 240 230 185 187 172 178 199 209 160 156 148 136 129 121 121 124 141 142 135 146 154 187 202 183 160 157 162 168 169 160 153 147 151 146
175 166 181 162 194 249 243 145 171 209 222 167 173 174 171 181 166 133 132 129 114 103 99 114 122 124 117 126 133 143 181 205 168 148 143 150 156 159 150 142 138 136 145 143
196 188 183 186 208 235 208 201 214 171 170 186 173 173 159 154 161 144 129 122 120 124 122 122 130 122 100 119 137 150 193 162 139 132 138 142 137 140 140 141 141 134 141 146
256 163 149 221 252 244 241 242 194 177 189 188 162 155 145 146 145 136 133 132 128 124 130 125 124 121 113 106 124 154 159 143 132 131 133 129 131 128 126 130 139 143 156 164
215 168 161 236 262 289 258 217 191 70 64 95 96 123 145 141 142 144 142 144 143 132 123 126 135 139 143 126 106 113 130 127 125 126 124 121 125 130 123 119 136 160 182 182
204 184 179 217 218 197 234 237 204 156 158 157 131 94 110 150 156 148 151 155 146 142 132 129 130 131 136 129 117 105 123 130 129 124 124 129 130 128 130 124 83 54 112 135